Home > Weather > Judenburg > Past weeks

Flag for Austria Weather for the Past 2 Weeks in Judenburg, Styria, Austria

Now
32 °F

Scattered clouds.


Feels Like: 32 °F
Forecast: 19 / 41 °F
Wind: 1 mph from North

Location: Zeltweg

Current Time: Feb 13, 2016 at 10:27:16 AM

Latest Report: Feb 13, 2016 at 9:50 AM


Visibility: 9 mi

Pressure: 29.36 "Hg (26.77 "Hg at 739m altitude)

Humidity: 87%

Dew point: 28 °F

Location of JudenburgLocation

Historic Weather in Judenburg — Graph

°F

Judenburg Temperature Yesterday

Maximum temperature yesterday: 34 °F (at 2:20 PM)
Minimum temperature yesterday: 19 °F (at 4:50 AM)
Average temperature yesterday: 28 °F

High & Low Weather Summary for the Past Weeks

 TemperatureHumidityPressure
High57 °F (Feb 1, 1:50 PM)100% (Jan 30, 8:50 AM)30.42 "Hg (Jan 30, 8:50 AM)
Low19 °F (Feb 12, 4:50 AM)45% (Feb 4, 11:20 AM)29.27 "Hg (Feb 10, 6:50 AM)
Average37 °F79%29.93 "Hg
* Reported Jan 29 8:20 AM — Feb 13 8:50 AM, Judenburg, Weather by CustomWeather, © 2016

Note: Actual official high and low records may vary slightly from our data, if they occured in-between our weather recording intervals... More about our weather records

Advertising

Judenburg Weather History for the Previous 24 Hours

 ConditionsComfort  
Time TempWeatherWind HumidityBarometerVisibility
8:50 AM
Sat, Feb 13
28 °FPartly sunny.3 mph100%29.36 "Hg6 mi
8:20 AM28 °FBroken clouds.2 mph100%29.36 "Hg6 mi
7:50 AM28 °FBroken clouds.1 mph93%29.36 "Hg5 mi
6:50 AM30 °FPassing clouds.3 mph86%29.33 "Hg6 mi
5:50 AM28 °FOvercast.2 mph93%29.33 "Hg9 mi
4:50 AM28 °FMostly cloudy.3 mph93%29.36 "Hg9 mi
3:50 AM30 °FOvercast.3 mph86%29.33 "Hg9 mi
9:50 PM
Fri, Feb 12
30 °FPassing clouds.1 mph86%29.42 "Hg9 mi
8:50 PM32 °FMostly cloudy.1 mph87%29.45 "Hg9 mi
7:50 PM32 °FMostly cloudy.1 mph80%29.47 "Hg9 mi
6:50 PM32 °FMostly cloudy.1 mph100%29.47 "Hg9 mi
5:50 PM32 °FMostly cloudy.3 mph93%29.50 "Hg9 mi
4:50 PM34 °FMore clouds than sun.2 mph75%29.53 "Hg9 mi
4:20 PM34 °FMostly cloudy.1 mph70%29.53 "Hg9 mi
3:50 PM34 °FMostly cloudy.2 mph75%29.56 "Hg12 mi
3:20 PM34 °FOvercast.3 mph75%29.56 "Hg12 mi
2:50 PM34 °FPartly sunny.1 mph70%29.56 "Hg12 mi
2:20 PM34 °FPartly sunny.1 mph70%29.56 "Hg12 mi
1:50 PM32 °FBroken clouds.2 mph75%29.59 "Hg12 mi
1:20 PM32 °FBroken clouds.2 mph75%29.59 "Hg12 mi
12:50 PM32 °FPartly sunny.3 mph75%29.59 "Hg12 mi
12:20 PM30 °FPartly sunny.2 mph80%29.62 "Hg12 mi
11:50 AM30 °FPartly sunny.1 mph80%29.62 "Hg12 mi
11:20 AM28 °FPartly sunny.2 mph86%29.65 "Hg12 mi
10:50 AM28 °FPartly sunny.1 mph100%29.65 "Hg12 mi
10:20 AM27 °FPartly sunny.1 mph86%29.65 "Hg12 mi
Weather by CustomWeather, © 2016

See weather overviewHow to use our weather pages